Wind_Speed
4 5 5 4 4 5 5 4 5 5 5 6 6 7 7 6 6 6 6 6 5 5 6 6 5 5 4 4 4 4 4 3 4 4 4 5 5 6 6 6 6 6 6 5 5 5 5 5 5
5 5 5 5 5 5 6 6 6 6 6 7 7 7 7 7 6 7 6 6 6 6 7 7 6 6 6 5 5 5 5 5 5 6 6 6 6 7 7 7 7 8 7 7 6 6 6 6 6
5 6 6 6 6 6 7 7 7 7 7 7 7 7 7 7 7 7 7 7 6 7 7 7 7 7 7 7 6 6 6 6 6 6 7 7 7 7 8 8 9 9 8 8 7 7 7 7 8
5 6 6 6 7 7 8 8 8 8 8 8 8 8 8 8 8 8 8 8 7 7 7 8 8 8 8 7 7 8 7 8 7 6 7 7 8 7 8 9 8 8 8 8 8 8 8 8 8
6 6 6 7 7 8 8 8 9 9 9 8 8 8 8 9 9 9 9 9 9 8 8 8 8 9 8 8 8 8 8 8 8 7 7 7 7 8 8 9 8 7 8 8 8 8 8 9 9
6 6 6 7 7 8 9 9 10 9 9 9 9 9 9 9 9 10 10 10 10 9 9 8 8 8 9 9 8 8 9 8 8 8 8 8 9 8 8 8 8 7 8 8 8 8 9 9 10
7 6 7 7 8 8 9 9 9 9 10 10 10 10 9 10 10 10 10 10 10 10 10 10 10 9 9 9 9 8 8 8 8 7 8 8 9 10 9 8 8 8 9 9 9 9 10 10 11
8 8 8 8 9 9 9 10 10 10 10 11 11 10 10 9 10 11 11 10 10 10 10 10 10 10 10 9 10 9 9 9 9 8 9 9 9 9 9 9 9 9 9 9 10 10 10 11 12
10 10 10 10 11 11 10 11 11 11 11 11 11 10 10 10 11 11 11 11 11 10 10 10 10 10 10 9 10 10 9 9 9 9 9 9 9 10 10 10 10 9 10 10 11 11 11 12 12
10 11 10 11 11 11 11 11 11 12 12 11 11 11 11 11 11 10 11 11 11 11 11 11 10 11 11 10 10 10 9 9 9 9 9 9 9 10 10 10 10 10 11 11 12 12 12 12 12
11 12 12 12 12 12 12 12 11 12 12 12 12 12 11 11 11 11 11 12 12 12 12 12 11 11 11 10 10 10 10 9 9 9 9 10 10 9 10 10 11 11 12 12 12 13 12 12 12
12 12 12 12 12 13 12 12 12 12 13 13 12 12 12 12 12 12 12 12 12 12 12 12 12 11 11 10 10 10 10 10 10 10 9 10 10 10 10 10 11 11 12 12 12 12 12 12 12
12 12 12 13 13 13 13 13 13 13 14 14 14 13 13 13 13 13 13 13 12 12 12 12 12 12 11 11 11 11 10 10 10 10 9 9 9 10 10 10 11 11 11 12 12 12 12 12 12
12 12 12 12 12 13 13 13 13 13 14 14 14 14 14 14 13 13 13 14 13 12 12 12 12 12 11 11 11 11 11 11 10 10 9 9 10 10 10 11 12 12 12 12 12 12 12 12 12
13 12 12 12 12 12 13 13 13 13 14 14 14 14 14 14 14 13 14 14 13 13 13 12 12 12 12 12 12 12 11 11 11 10 10 10 10 10 11 11 12 12 12 12 12 12 13 13 13
13 13 12 12 12 12 13 13 13 14 14 14 14 14 14 14 14 14 14 14 14 13 13 13 13 13 13 13 13 13 12 11 11 10 10 10 10 10 11 11 12 12 12 12 12 12 13 13 13
12 12 13 13 12 12 13 13 13 13 14 14 14 14 15 15 14 14 14 14 14 13 13 13 13 13 14 14 14 14 13 12 12 11 10 11 11 11 11 11 12 12 12 12 12 12 12 12 12
12 13 14 14 13 13 13 13 14 13 14 14 14 15 15 15 15 14 14 14 14 14 14 15 14 14 14 14 15 14 14 13 12 12 11 11 11 12 11 12 12 12 13 13 13 12 12 13 14
13 14 14 15 14 14 14 14 14 14 14 15 15 14 16 15 16 15 15 16 16 16 15 16 15 15 14 14 13 13 14 13 13 13 13 13 13 12 12 12 13 13 13 13 13 13 13 13 14
14 14 14 15 15 15 14 15 14 15 15 15 15 15 16 16 16 16 16 17 16 15 15 15 15 14 14 14 14 14 14 14 14 14 14 14 14 14 13 13 13 13 14 14 14 14 14 14 14
14 14 14 16 16 16 15 14 15 15 16 16 15 14 15 15 15 15 16 17 16 16 16 16 16 15 14 15 14 14 15 15 15 15 15 16 16 15 15 14 14 14 14 14 14 14 14 14 14
15 16 16 16 16 15 15 16 16 16 16 17 15 15 16 16 16 16 16 16 16 16 17 16 16 16 15 15 15 15 15 15 16 16 16 16 16 16 15 15 15 14 14 14 14 14 14 14 15
16 16 16 16 16 15 15 17 16 17 17 17 16 16 16 17 17 17 16 16 17 17 17 17 17 17 16 16 16 17 16 16 16 17 16 16 16 16 16 16 16 16 16 15 15 15 15 15 15
16 16 15 15 16 16 15 17 17 18 18 18 18 18 17 17 17 17 17 17 17 18 18 18 19 19 18 18 18 18 18 18 18 17 17 16 16 16 16 17 17 17 16 16 16 16 16 16 16
16 15 14 14 15 16 16 18 18 18 19 19 19 18 18 18 18 18 18 17 18 18 19 19 19 19 19 20 19 19 20 19 19 18 18 18 18 17 17 17 17 17 17 17 17 17 17 17 17
16 16 15 15 15 17 17 19 19 19 20 21 20 19 19 19 19 19 19 19 19 19 19 19 19 19 19 20 20 20 21 20 20 19 19 19 19 19 18 18 18 18 19 19 18 18 18 18 18
16 16 16 17 17 16 17 19 19 19 20 20 21 20 20 20 19 20 20 20 20 20 19 19 19 19 20 21 21 21 20 20 20 19 19 19 20 19 20 20 19 19 19 19 19 19 19 19 19
17 16 16 18 16 16 16 18 19 20 20 20 21 21 20 21 21 21 21 21 21 20 20 19 20 20 21 21 21 21 21 21 21 20 19 19 20 20 20 20 20 20 20 20 20 20 19 19 19
17 17 18 18 18 17 17 18 19 19 21 21 22 21 21 21 21 21 21 21 21 21 21 21 21 21 21 22 21 21 22 22 21 21 20 20 20 21 20 20 20 21 20 20 20 20 20 20 19
19 19 19 20 19 19 18 19 19 20 21 22 23 23 22 22 22 23 22 22 22 22 22 22 22 22 22 22 22 22 22 22 22 21 21 21 21 22 21 21 21 21 21 21 21 20 20 20 21
Wind_Direction
241 237 241 241 244 248 257 258 262 260 257 255 256 258 259 257 261 264 260 259 260 261 258 260 265 274 275 276 285 290 278 264 257 248 245 248 248 248 249 252 251 253 256 257 257 256 252 253 250
247 240 235 238 247 247 258 265 263 261 264 261 258 259 259 257 258 261 262 264 261 263 262 263 267 267 271 274 276 281 277 266 262 257 254 252 254 253 257 259 258 256 258 259 257 258 256 253 256
248 242 237 239 245 239 247 259 261 258 265 265 262 261 262 262 263 264 264 264 261 260 264 263 265 268 272 275 276 278 281 273 270 265 260 255 256 259 265 265 260 256 256 260 259 259 259 252 254
251 248 244 245 248 246 247 257 262 259 265 267 265 264 266 268 267 269 268 266 265 262 264 265 266 266 267 271 275 276 278 275 271 264 256 254 253 255 265 269 264 259 259 260 264 263 259 254 255
254 254 249 246 250 251 254 258 262 261 264 267 267 269 270 270 268 269 270 273 273 271 270 266 268 266 262 264 271 274 277 276 273 272 262 259 256 258 261 260 261 261 263 262 265 264 262 261 262
254 259 261 252 253 254 257 258 259 263 265 267 268 272 273 271 269 268 269 271 273 274 274 272 268 266 262 263 267 272 277 275 274 272 267 265 263 261 261 262 259 260 262 266 266 265 266 266 264
252 255 258 258 255 256 258 258 259 264 265 266 267 271 272 270 270 270 270 270 270 271 272 275 274 274 273 273 269 274 277 274 275 275 272 272 270 268 264 262 262 265 269 270 271 268 268 268 267
253 257 261 261 258 260 261 258 258 262 264 267 269 272 271 270 270 269 269 268 268 267 269 271 276 280 279 283 279 278 281 280 277 275 275 278 277 274 269 268 267 271 274 275 275 273 272 271 270
254 260 262 263 264 266 264 260 259 260 263 266 269 272 273 271 270 267 267 267 266 267 268 269 272 277 281 282 283 282 283 283 281 281 280 278 274 274 272 271 270 273 276 277 276 275 275 274 273
256 260 261 263 265 266 267 267 264 261 262 266 268 269 271 271 270 264 264 267 267 269 270 270 272 277 281 282 281 279 280 282 283 282 281 280 277 274 273 271 272 274 276 277 276 275 274 274 274
256 259 260 263 265 265 267 268 268 265 262 266 266 266 267 268 267 267 266 268 270 272 272 271 273 275 278 280 279 280 285 284 284 283 279 277 275 275 274 273 274 277 279 280 279 274 273 273 273
258 259 261 263 265 266 266 267 268 268 265 266 267 270 269 269 268 268 269 269 272 272 272 272 273 274 277 280 280 282 286 289 288 284 280 278 277 274 274 275 277 280 282 281 279 276 274 275 274
257 260 263 264 266 268 267 266 267 267 269 269 269 268 266 267 270 271 270 272 273 272 272 273 274 275 276 278 279 280 281 285 287 286 283 279 277 278 278 280 281 282 284 282 278 276 275 275 274
258 261 262 265 266 266 267 266 267 268 269 269 268 266 264 266 269 271 270 271 272 273 274 275 275 276 276 277 278 279 280 281 283 281 283 281 279 279 280 283 286 285 285 284 281 278 277 276 275
256 259 261 263 266 266 267 266 268 270 270 270 268 267 265 265 267 267 268 269 272 274 275 275 275 276 276 277 278 278 278 279 278 278 279 280 280 279 280 284 287 287 286 286 285 282 279 278 277
255 259 263 263 264 266 268 270 271 270 270 269 269 269 265 266 266 266 268 270 271 273 275 276 275 275 274 273 275 276 276 277 277 277 280 279 279 278 281 285 287 289 288 286 285 283 281 282 281
255 261 266 267 265 267 268 271 271 271 270 269 268 268 267 268 266 268 270 272 272 273 274 276 275 275 273 271 272 272 274 273 275 276 279 280 280 280 281 285 289 290 290 287 286 285 284 285 286
257 261 267 270 271 270 270 272 271 270 269 268 265 265 266 267 268 269 271 271 272 274 275 275 276 276 274 274 273 271 269 270 272 276 277 279 281 282 283 285 288 289 290 289 287 285 284 285 287
254 258 265 268 272 273 273 272 271 272 271 270 267 266 268 269 268 268 273 272 271 274 276 276 276 275 275 273 271 271 270 270 272 276 276 275 277 280 283 285 286 288 289 289 288 286 284 285 288
256 258 263 270 274 275 272 270 272 271 273 273 271 270 269 269 269 270 272 272 272 274 275 276 277 276 275 272 271 272 274 271 272 276 276 275 275 277 281 282 284 286 287 288 288 285 284 285 285
255 260 263 269 272 272 273 271 274 274 274 272 271 269 271 271 272 272 272 271 271 271 273 275 276 275 277 274 272 275 276 275 274 275 275 275 275 276 278 281 282 284 286 287 287 286 286 286 285
255 261 263 266 269 269 272 273 275 277 273 276 273 268 269 271 272 272 271 270 269 271 272 273 274 274 275 274 272 273 274 276 276 277 275 273 274 275 276 279 281 283 285 285 285 285 285 286 287
258 261 262 264 266 267 271 274 275 276 275 276 275 271 268 269 272 272 270 270 272 272 273 272 272 272 273 272 271 272 274 276 276 276 275 273 271 273 275 277 281 282 284 284 284 285 285 286 287
258 259 261 264 266 267 270 273 272 271 275 277 276 273 270 270 271 271 270 270 272 273 273 272 271 270 271 271 271 273 276 277 275 273 272 272 271 271 272 275 278 280 281 282 282 282 284 285 285
256 257 260 261 264 269 268 268 272 271 274 276 275 274 272 269 268 269 273 270 272 273 274 274 271 270 271 271 272 273 275 275 272 271 271 271 271 271 272 274 277 278 280 281 281 281 282 283 284
255 254 253 256 258 263 265 269 273 274 275 274 273 271 270 270 270 270 272 273 274 274 275 275 274 273 272 271 272 274 274 273 273 272 270 270 271 271 271 273 275 278 281 282 280 279 281 282 282
255 252 252 256 261 262 264 269 271 274 274 272 271 273 273 273 274 272 271 272 274 276 276 274 273 274 274 273 273 273 273 274 273 271 270 269 271 272 272 274 274 276 278 279 281 280 280 280 281
254 253 252 255 262 261 261 268 273 273 274 275 274 274 275 273 273 274 274 273 272 273 273 274 274 274 274 274 275 275 276 277 275 272 271 270 271 273 272 273 274 275 276 276 279 280 281 281 281
256 254 255 256 259 259 262 263 267 271 275 276 276 275 274 274 274 275 276 276 275 274 275 275 275 275 275 275 275 276 275 275 273 272 271 272 273 274 273 273 274 275 276 278 279 280 280 279 280
261 258 256 255 256 257 261 263 266 270 272 275 276 276 274 274 276 277 277 276 277 276 276 276 275 274 274 274 275 276 275 274 272 271 270 271 273 275 274 272 273 274 274 277 279 279 279 279 279
Height
5853 5853 5854 5855 5857 5857 5856 5857 5857 5857 5858 5858 5858 5859 5859 5860 5861 5863 5861 5860 5860 5861 5861 5861 5861 5861 5861 5861 5861 5861 5860 5860 5860 5861 5861 5861 5862 5863 5863 5863 5864 5864 5865 5865 5866 5866 5867 5867 5867
5852 5853 5854 5855 5855 5855 5856 5855 5856 5857 5857 5857 5857 5858 5858 5859 5859 5859 5859 5859 5860 5860 5860 5860 5860 5860 5860 5860 5860 5860 5860 5860 5860 5860 5861 5861 5861 5862 5862 5863 5863 5863 5863 5864 5865 5865 5866 5866 5866
5851 5852 5854 5854 5854 5854 5855 5855 5855 5856 5856 5856 5857 5857 5858 5858 5858 5858 5858 5859 5859 5859 5859 5859 5859 5860 5859 5859 5859 5859 5859 5859 5859 5859 5860 5860 5860 5861 5861 5861 5862 5862 5862 5863 5863 5864 5864 5865 5866
5850 5852 5853 5853 5853 5853 5853 5854 5854 5854 5855 5855 5856 5856 5856 5857 5857 5857 5857 5857 5858 5858 5858 5858 5858 5858 5858 5858 5858 5859 5859 5858 5858 5858 5858 5859 5859 5860 5860 5860 5860 5861 5861 5861 5862 5862 5863 5863 5864
5849 5850 5851 5851 5851 5852 5852 5853 5853 5853 5853 5854 5855 5855 5855 5856 5856 5856 5856 5856 5857 5857 5857 5857 5857 5857 5857 5857 5857 5857 5858 5857 5857 5857 5857 5858 5858 5858 5859 5859 5859 5859 5860 5860 5860 5861 5861 5862 5862
5849 5849 5850 5850 5850 5851 5851 5851 5852 5852 5852 5853 5853 5854 5854 5854 5854 5854 5854 5855 5855 5856 5856 5856 5856 5856 5856 5856 5856 5856 5856 5856 5856 5856 5856 5856 5857 5857 5857 5857 5858 5858 5858 5858 5859 5859 5860 5860 5860
5848 5848 5848 5849 5849 5849 5850 5850 5850 5850 5851 5851 5852 5852 5852 5852 5853 5853 5853 5853 5854 5854 5854 5854 5854 5854 5854 5854 5854 5854 5854 5854 5855 5855 5855 5855 5855 5855 5855 5856 5856 5856 5856 5857 5857 5857 5857 5858 5858
5846 5847 5846 5847 5847 5848 5848 5848 5848 5849 5849 5849 5850 5850 5851 5851 5851 5851 5851 5852 5852 5852 5853 5853 5853 5853 5853 5853 5853 5853 5853 5853 5853 5853 5853 5853 5854 5854 5854 5854 5854 5855 5855 5855 5855 5855 5855 5856 5856
5844 5846 5845 5845 5846 5846 5846 5846 5847 5847 5847 5847 5848 5848 5849 5849 5849 5849 5849 5850 5850 5850 5851 5851 5851 5851 5851 5851 5851 5851 5851 5851 5851 5851 5851 5852 5852 5852 5852 5852 5853 5853 5853 5853 5853 5853 5853 5853 5853
5842 5843 5843 5843 5844 5844 5844 5844 5845 5845 5845 5845 5846 5846 5847 5847 5846 5847 5847 5847 5848 5848 5849 5849 5849 5849 5850 5850 5850 5849 5849 5849 5849 5850 5850 5850 5850 5850 5850 5850 5850 5851 5851 5851 5851 5851 5851 5851 5851
5840 5840 5840 5841 5841 5842 5842 5843 5843 5843 5843 5844 5844 5844 5844 5845 5844 5845 5845 5846 5846 5846 5847 5847 5847 5847 5848 5848 5848 5848 5848 5848 5848 5848 5848 5848 5848 5848 5848 5848 5849 5849 5848 5848 5848 5848 5848 5849 5849
5837 5838 5838 5839 5839 5840 5840 5840 5841 5841 5842 5841 5841 5842 5842 5842 5843 5843 5843 5844 5844 5844 5844 5845 5845 5845 5845 5846 5846 5846 5846 5846 5846 5846 5846 5846 5846 5846 5846 5847 5847 5847 5846 5846 5846 5846 5846 5846 5846
5834 5835 5835 5836 5836 5837 5837 5838 5838 5838 5839 5839 5839 5840 5840 5840 5841 5841 5841 5841 5842 5842 5842 5842 5843 5843 5843 5843 5844 5844 5844 5844 5844 5844 5844 5844 5844 5844 5844 5844 5844 5844 5844 5844 5843 5843 5843 5843 5844
5832 5832 5833 5833 5834 5834 5835 5835 5836 5836 5836 5837 5837 5837 5838 5838 5838 5839 5839 5839 5839 5840 5840 5840 5840 5841 5841 5841 5841 5842 5842 5842 5842 5842 5842 5842 5842 5842 5842 5842 5842 5842 5841 5841 5841 5841 5841 5841 5841
5828 5829 5830 5831 5831 5831 5832 5833 5833 5833 5833 5834 5834 5834 5835 5835 5836 5836 5837 5837 5837 5837 5838 5838 5838 5838 5839 5839 5839 5839 5839 5839 5840 5840 5840 5840 5840 5840 5840 5840 5840 5839 5839 5838 5838 5838 5838 5838 5838
5825 5826 5827 5828 5828 5829 5831 5830 5830 5830 5831 5831 5831 5831 5831 5832 5833 5834 5834 5834 5834 5835 5835 5835 5836 5836 5836 5836 5837 5837 5837 5837 5837 5838 5838 5838 5838 5838 5838 5837 5837 5837 5836 5836 5836 5836 5835 5835 5835
5822 5823 5824 5825 5826 5826 5827 5827 5827 5827 5828 5828 5829 5829 5829 5829 5830 5831 5831 5832 5832 5832 5833 5833 5833 5833 5833 5834 5834 5834 5835 5835 5835 5835 5835 5836 5836 5836 5835 5835 5835 5834 5834 5834 5833 5833 5833 5833 5832
5820 5821 5821 5822 5823 5823 5824 5824 5824 5824 5825 5825 5826 5826 5826 5825 5827 5828 5828 5829 5829 5830 5830 5830 5830 5830 5831 5831 5831 5832 5832 5832 5833 5833 5833 5833 5833 5833 5833 5833 5832 5832 5832 5831 5831 5831 5830 5830 5830
5817 5818 5819 5819 5819 5820 5820 5821 5821 5821 5821 5822 5822 5822 5823 5823 5824 5824 5825 5826 5826 5826 5827 5827 5827 5827 5828 5828 5828 5829 5829 5830 5830 5830 5830 5830 5831 5831 5831 5831 5830 5830 5829 5829 5828 5828 5828 5827 5827
5814 5815 5816 5816 5816 5816 5817 5817 5817 5817 5818 5818 5818 5818 5819 5820 5821 5821 5822 5822 5822 5823 5823 5823 5824 5824 5825 5825 5825 5826 5826 5826 5827 5827 5827 5827 5828 5828 5828 5828 5827 5827 5826 5826 5825 5825 5824 5824 5824
5811 5812 5812 5813 5813 5813 5814 5815 5814 5814 5815 5815 5815 5815 5816 5817 5818 5818 5819 5819 5819 5820 5820 5820 5821 5821 5821 5821 5822 5822 5823 5823 5823 5824 5824 5824 5824 5824 5824 5824 5824 5824 5823 5823 5822 5822 5821 5821 5820
5808 5809 5809 5809 5809 5810 5811 5811 5811 5810 5811 5811 5811 5812 5813 5813 5814 5814 5815 5815 5815 5816 5816 5817 5817 5818 5818 5818 5819 5819 5819 5820 5820 5820 5820 5820 5820 5821 5821 5821 5821 5821 5820 5820 5819 5819 5818 5818 5817
5804 5805 5806 5806 5806 5807 5807 5807 5808 5807 5807 5808 5808 5808 5809 5809 5810 5810 5810 5811 5811 5812 5812 5813 5813 5814 5814 5814 5815 5815 5815 5816 5816 5815 5816 5816 5817 5817 5817 5817 5817 5817 5817 5816 5816 5815 5815 5814 5814
5801 5802 5802 5802 5802 5803 5804 5805 5805 5804 5804 5805 5805 5805 5805 5806 5806 5806 5806 5807 5807 5808 5808 5808 5809 5809 5810 5810 5810 5811 5811 5811 5811 5811 5812 5812 5812 5813 5813 5813 5813 5813 5813 5812 5812 5812 5811 5810 5810
5796 5797 5798 5798 5799 5800 5801 5801 5802 5801 5801 5801 5801 5801 5802 5802 5802 5802 5801 5802 5803 5803 5803 5803 5804 5804 5805 5805 5806 5806 5806 5806 5807 5807 5807 5808 5808 5808 5809 5809 5809 5808 5808 5808 5808 5807 5807 5806 5806
5792 5794 5795 5796 5797 5797 5797 5797 5798 5797 5797 5797 5797 5798 5798 5797 5797 5798 5798 5798 5798 5798 5798 5798 5799 5799 5800 5800 5800 5801 5801 5801 5802 5802 5802 5803 5803 5804 5804 5804 5804 5804 5803 5803 5803 5803 5802 5802 5801
5788 5789 5791 5792 5792 5793 5794 5794 5794 5793 5793 5793 5793 5793 5793 5793 5793 5793 5793 5794 5793 5793 5793 5794 5794 5794 5795 5795 5795 5795 5796 5796 5796 5797 5797 5798 5798 5798 5799 5799 5799 5799 5799 5798 5798 5798 5797 5797 5797
5785 5785 5787 5787 5788 5789 5790 5790 5790 5789 5789 5789 5789 5789 5789 5789 5789 5789 5789 5789 5789 5789 5789 5789 5788 5789 5789 5789 5790 5790 5790 5790 5791 5791 5792 5792 5793 5793 5793 5793 5793 5793 5793 5793 5793 5793 5792 5792 5791
5780 5781 5781 5782 5784 5785 5785 5788 5785 5784 5784 5784 5784 5784 5785 5784 5784 5784 5784 5784 5784 5784 5784 5784 5784 5784 5784 5784 5784 5784 5784 5784 5785 5786 5786 5787 5787 5787 5787 5787 5787 5788 5788 5788 5787 5787 5787 5787 5786
5775 5776 5777 5778 5779 5779 5780 5783 5780 5780 5779 5779 5779 5779 5779 5780 5779 5779 5779 5779 5779 5779 5778 5778 5778 5778 5778 5778 5778 5778 5778 5778 5779 5780 5780 5781 5781 5781 5781 5782 5782 5782 5782 5782 5782 5782 5781 5781 5780